FW7576 Weather Reports


Display with metric or nautical units.
time (UTC)temp
F
wind
direction
speed
MPH
gust
MPH
rain 1hr
in
rain 24hr
in
rain mn
in
humidity
%
barometer
mb
20260510101535 35 0 0.0 0.0 0.00 0.00 0.00 84 1016.8
20260510100038 35 0 0.0 0.0 0.00 0.00 0.00 83 1016.7
20260510094542 36 0 0.0 0.0 0.00 0.00 0.00 83 1016.3
20260510093041 36 0 0.0 0.0 0.00 0.00 0.00 82 1016.2
20260510091539 36 0 0.0 0.0 0.00 0.00 0.00 81 1016.0
20260510090042 36 0 0.0 0.0 0.00 0.00 0.00 80 1016.0
20260510084538 37 0 0.0 0.0 0.00 0.00 0.00 80 1015.7
20260510083036 37 0 0.0 0.0 0.00 0.00 0.00 77 1015.5
20260510081551 38 0 0.0 0.0 0.00 0.00 0.00 77 1015.4
20260510080143 38 0 0.0 0.0 0.00 0.00 0.00 76 1015.2
20260510074539 39 0 0.0 0.0 0.00 0.00 0.00 75 1014.8
20260510073038 39 0 0.0 0.0 0.00 0.00 0.00 74 1014.8
20260510071535 39 0 0.0 0.0 0.00 0.00 0.00 73 1014.5
20260510070040 40 0 0.0 0.0 0.00 0.00 0.00 71 1014.4
20260510064536 41 0 0.0 0.0 0.00 0.00 0.00 69 1014.4
20260510063035 42 0 0.0 1.0 0.00 0.00 0.00 66 1014.2
20260510061539 43 28 0.0 4.0 0.00 0.00 0.00 65 1014.0
20260510060037 43 51 0.0 1.0 0.00 0.00 0.00 66 1013.9
20260510054546 44 51 0.0 3.0 0.00 0.00 0.00 65 1013.9
20260510053034 44 46 2.0 5.0 0.00 0.00 0.00 64 1013.7
20260510051536 45 46 4.0 9.0 0.00 0.00 0.00 63 1013.6
20260510050051 45 60 3.0 11.0 0.00 0.00 0.00 62 1013.5
20260510044546 45 55 3.0 9.0 0.00 0.00 0.00 62 1013.2
20260510043038 46 62 6.0 14.0 0.00 0.00 0.00 61 1013.0
20260510041548 47 61 5.0 14.0 0.00 0.00 0.00 57 1012.8
20260510040039 49 12 6.0 18.0 0.00 0.00 0.00 51 1012.4
20260510034537 53 34 8.0 13.0 0.00 0.00 0.00 40 1011.8
20260510033043 53 304 0.0 3.0 0.00 0.00 0.00 40 1011.1
20260510031550 54 0 0.0 4.0 0.00 0.00 0.00 39 1010.9
20260510030038 55 349 0.0 3.0 0.00 0.00 0.00 39 1010.9
20260510024553 56 325 0.0 4.0 0.00 0.00 0.00 37 1010.7
20260510023036 56 32 2.0 10.0 0.00 0.00 0.00 37 1010.4
20260510021535 57 278 3.0 6.0 0.00 0.00 0.00 37 1010.1
20260510020032 57 322 5.0 12.0 0.00 0.00 0.00 39 1009.8
20260510014540 58 53 2.0 6.0 0.00 0.00 0.00 40 1009.4
20260510013040 58 340 3.0 8.0 0.00 0.00 0.00 39 1009.1
20260510011538 59 332 2.0 7.0 0.00 0.00 0.00 38 1008.7
20260510010038 60 360 2.0 11.0 0.00 0.00 0.00 37 1008.2
20260510004538 61 347 5.0 12.0 0.00 0.00 0.00 37 1008.0
20260510003041 61 294 3.0 11.0 0.00 0.00 0.00 37 1007.8
20260510001539 62 329 5.0 10.0 0.00 0.00 0.00 36 1007.6
20260510000041 63 63 4.0 11.0 0.00 0.00 0.00 37 1007.3
20260509234538 63 8 5.0 11.0 0.00 0.00 0.00 37 1007.1
20260509233046 63 293 3.0 13.0 0.00 0.00 0.00 37 1007.0
20260509231535 63 304 5.0 14.0 0.00 0.00 0.00 38 1006.9
20260509230035 64 316 6.0 16.0 0.00 0.00 0.00 37 1006.5
20260509224540 64 318 8.0 20.0 0.00 0.00 0.00 36 1006.4
20260509223045 64 326 5.0 19.0 0.00 0.00 0.00 36 1006.2
20260509221542 65 283 5.0 16.0 0.00 0.00 0.00 37 1006.0
20260509220040 64 358 8.0 17.0 0.00 0.00 0.00 38 1005.8
20260509214537 65 7 8.0 18.0 0.00 0.00 0.00 37 1005.5
20260509213036 65 320 8.0 16.0 0.00 0.00 0.00 37 1005.3
20260509211540 65 288 9.0 18.0 0.00 0.00 0.00 36 1005.0
20260509210050 66 290 5.0 24.0 0.00 0.00 0.00 37 1004.9
20260509204537 66 321 6.0 22.0 0.00 0.00 0.00 37 1004.4
20260509203036 66 348 9.0 20.0 0.00 0.00 0.00 40 1004.6
20260509201535 66 343 9.0 20.0 0.00 0.00 0.00 40 1004.3
20260509200043 67 339 7.0 22.0 0.00 0.00 0.00 36 1004.0
20260509194539 66 249 8.0 18.0 0.00 0.00 0.00 36 1003.7
20260509193037 67 309 7.0 15.0 0.00 0.00 0.00 38 1003.4
20260509191537 68 293 10.0 19.0 0.00 0.00 0.00 35 1003.4
20260509190040 68 295 7.0 18.0 0.00 0.00 0.00 37 1003.3
20260509184536 68 245 8.0 21.0 0.00 0.00 0.00 37 1003.1
20260509183039 67 273 7.0 18.0 0.00 0.00 0.00 36 1003.1
20260509181534 67 267 12.0 23.0 0.00 0.00 0.00 36 1003.1
20260509180035 67 287 10.0 25.0 0.00 0.00 0.00 35 1003.1
20260509174536 68 243 7.0 21.0 0.00 0.00 0.00 36 1003.2
20260509173103 66 277 8.0 16.0 0.00 0.00 0.00 35 1003.2
20260509171539 65 233 8.0 19.0 0.00 0.00 0.00 36 1003.3
20260509170049 64 250 8.0 15.0 0.00 0.00 0.00 36 1003.3
20260509164537 63 256 5.0 13.0 0.00 0.00 0.00 36 1003.4
20260509163041 63 221 3.0 9.0 0.00 0.00 0.00 36 1003.4
20260509161542 63 314 5.0 14.0 0.00 0.00 0.00 35 1003.7
20260509160041 63 290 3.0 9.0 0.00 0.00 0.00 34 1003.8
20260509154538 62 276 3.0 10.0 0.00 0.00 0.00 37 1003.7
20260509153036 62 354 5.0 12.0 0.00 0.00 0.00 37 1003.6
20260509151543 62 300 4.0 11.0 0.00 0.00 0.00 42 1003.4
20260509150043 61 274 3.0 9.0 0.00 0.00 0.00 43 1003.1
20260509144539 61 296 2.0 9.0 0.00 0.00 0.00 44 1002.8
20260509143047 61 290 4.0 6.0 0.00 0.00 0.00 44 1002.7
20260509141534 61 231 5.0 13.0 0.00 0.00 0.00 43 1002.8
20260509140043 61 257 5.0 10.0 0.00 0.00 0.00 46 1002.6
20260509134542 60 259 3.0 9.0 0.00 0.00 0.00 51 1002.5
20260509133038 59 240 4.0 11.0 0.00 0.00 0.00 55 1002.6
20260509131545 58 240 3.0 12.0 0.00 0.00 0.00 63 1002.4
20260509130059 57 262 6.0 14.0 0.00 0.00 0.00 65 1002.3
20260509124540 57 250 4.0 13.0 0.00 0.00 0.00 70 1002.4
20260509123103 56 263 4.0 11.0 0.00 0.00 0.00 75 1002.2
20260509121541 55 238 6.0 11.0 0.00 0.00 0.00 77 1002.5
20260509120047 55 252 6.0 13.0 0.00 0.00 0.00 79 1002.2
20260509114551 54 253 5.0 13.0 0.00 0.00 0.00 81 1002.1
20260509113036 53 252 7.0 11.0 0.00 0.00 0.00 82 1001.9
20260509111542 53 246 6.0 14.0 0.00 0.00 0.00 82 1001.7
20260509110049 53 240 7.0 12.0 0.00 0.00 0.00 82 1001.7
20260509104539 53 257 4.0 11.0 0.00 0.00 0.00 82 1001.5
20260509103041 53 271 5.0 9.0 0.00 0.00 0.00 81 1001.2